Wind_Speed
10 12 13 15 14 10 9 7 7 7 9 10 10 8 12 15 16 14 14 16 17 16
14 16 16 16 10 10 8 6 4 5 8 8 10 8 12 16 18 18 16 16 17 17
18 16 15 15 13 9 7 5 3 4 6 9 11 5 11 14 16 19 20 18 19 19
19 17 17 14 10 8 6 2 1 1 5 6 8 4 7 10 14 18 19 19 19 19
19 19 16 11 9 8 3 1 2 3 4 7 8 5 7 10 13 15 17 18 18 19
19 16 14 12 10 5 2 2 4 4 7 9 9 8 9 10 13 13 15 16 17 17
16 17 18 14 8 5 5 5 5 8 9 10 9 10 10 11 12 13 14 16 17 16
23 21 14 11 7 8 8 7 7 6 8 12 14 15 13 13 13 14 16 17 17 14
19 16 13 10 11 11 10 7 8 14 15 16 17 14 14 14 13 14 15 18 18 15
14 13 13 13 11 11 9 11 14 15 14 16 15 14 14 13 13 14 16 16 16 18
17 15 16 13 10 12 13 14 16 15 15 14 16 15 14 14 16 16 17 17 16 18
18 18 15 12 15 15 15 20 18 15 14 14 15 15 17 19 21 21 19 18 18 17
17 16 14 16 14 16 22 20 15 14 14 17 20 23 24 25 28 28 28 28 27 21
16 15 18 19 19 23 21 17 15 16 18 19 19 21 22 22 23 23 25 27 29 29
Wind_Direction
178 173 164 161 155 142 136 115 90 60 47 46 39 58 41 34 28 24 22 19 12 1
182 174 165 158 159 150 144 135 118 64 50 41 35 55 40 33 29 27 22 21 20 14
176 171 167 163 162 153 144 131 98 63 47 38 27 46 35 31 26 21 21 19 18 19
176 174 169 174 169 162 151 132 62 43 28 22 19 4 22 26 18 16 17 19 17 20
179 180 182 180 163 161 167 80 15 21 29 19 11 4 9 17 15 15 16 14 16 18
181 182 184 169 157 164 136 85 58 41 29 30 40 50 39 16 11 15 20 26 27 28
176 162 150 156 158 156 146 118 90 75 73 56 39 25 20 14 20 28 26 18 22 18
154 155 156 155 153 140 124 101 85 77 69 62 52 41 36 38 30 15 3 2 7 15
153 154 156 147 141 124 114 97 89 88 86 77 59 34 23 15 10 7 3 1 358 3
154 163 149 137 126 115 114 114 104 93 78 60 44 20 9 15 28 36 37 29 21 16
184 176 144 138 127 121 122 119 111 92 68 49 37 34 46 56 53 54 47 42 36 19
171 156 145 137 132 134 134 126 109 87 64 48 51 58 61 59 60 57 50 43 32 17
168 152 140 141 143 144 137 126 111 92 72 77 78 77 73 67 65 62 56 49 42 32
152 149 145 139 142 140 134 127 113 104 99 94 84 75 69 66 63 56 51 44 38 34
Height
800 802 803 804 806 807 808 808 807 807 806 805 803 801 799 797 795 792 789 785 782 779
798 800 801 804 806 807 807 807 807 806 805 804 803 801 799 797 794 791 788 785 781 778
798 800 802 804 806 807 808 807 807 806 805 804 802 800 798 796 794 791 787 785 782 779
797 799 802 805 806 808 808 807 806 806 805 802 801 799 798 796 794 790 787 784 782 780
795 798 801 804 806 807 807 807 806 805 803 801 799 798 797 796 794 791 788 785 782 780
794 797 801 804 805 806 806 805 806 804 803 801 799 798 797 796 794 791 789 787 784 781
794 798 800 802 803 804 804 803 803 803 802 801 800 799 796 794 792 790 789 787 785 782
790 796 801 802 802 802 803 803 803 803 802 800 800 800 798 793 790 789 788 787 785 783
793 796 799 801 802 802 803 804 806 806 803 800 800 801 799 795 791 788 786 785 784 782
796 797 799 801 803 803 803 805 806 807 805 802 799 798 798 795 792 790 789 788 786 783
789 795 797 801 802 802 803 805 807 808 806 803 802 801 798 796 794 793 790 789 788 785
791 796 798 800 802 803 803 806 808 808 807 807 805 803 801 797 794 793 792 789 787 783
795 796 798 801 803 804 804 806 808 809 809 808 806 805 802 799 795 793 791 789 785 782
793 796 799 802 805 805 807 808 808 809 810 809 807 805 803 800 796 794 790 787 784 781